Showing default

TIROS 10, 1430

Orbit data source: Space-Track

TIROS 10, 1430 is a payload satellite owned by ESSA (US) in SSO that was launched on Fri, 02 Jul 1965 UTC via a THOR DELTA C launch vehicle from the Air Force Eastern Test Range (AFETR). Payload-class satellites include a variety of spacecraft equipped with specific instruments for various scientific and technological missions. These include communications satellites like Starlink; space stations such as the ISS; scientific satellites like the Hubble; Earth observation satellites from companies like Planet Labs, Umbra, and HawkEye 360; GPS; miniature CubeSats for education and research; and military/defense satellites.

Loading next visibility...
Identifier
1430, 1965-051A
Orbit
SSO
Country
Flag of USUS
Related business
Manufacturer
RCA/East Windsor
Mission
Non-operational spacecraft
Bus & Motor
TIROS I, Unknown motor
Mass
127 kg wet, 127 kg dry
Launch date (UTC)
1965-07-02 (61 years ago)
Launch vehicle
THOR DELTA C
Launch site
Air Force Eastern Test Range (AFETR)
Object type
Payload
Rocket body
Debris
Shape & HBR
Unknown
Radar Cross Section
Medium (>0.1 m² and <1 m²)

Expand to show TLE details & history
Last TLE update: 5 days ago

TLE from 5 days ago
0 TIROS 10
1 01430U 65051A   26154.30073453  .00000223  00000-0  80751-4 0  9990
2 01430  98.5023 273.6937 0056347 120.2126 240.4659 14.41625283193912
Epoch: 2026-06-03T07:13Z
TLE epoch observation values (Epoch: 2026-06-03T07:13:03.463Z)
Latitude
-0.00007°
Longitude
-86.33204°
Altitude
776.067 km
Speed
7.456 km/s
True Right ascension
18h 14m 46s
True Declination
0° 00' 00"
Sunlit
Object was in full shadow at epoch
Visualization orbit readout
Latitude
Unknown
Longitude
Unknown
Altitude
Unknown
Speed
Unknown
Apparent Right ascension
Unknown
Apparent Declination
Unknown
Sunlit
N/A
Visualization observer readout
Local Sidereal Time
12:06:43
Azimuth
Unknown
Elevation
Unknown
Doppler factor
Unknown
Orbital elements
Apogee altitude
790.42 km
Perigee altitude
710.087 km
Semi-major axis
7,128.39 km
Eccentricity
0.00563
Inclination
98.5023°
RAAN
273.6937°
Arg. of periapsis
120.2126°
True anomaly
239.90606°
Mean anomaly
240.4659°
Eccentric anomaly
240.18579°
Mean motion
3.60625 °/min
Orbital period
99.83 mins
BSTAR
0.000080751
Loading maneuver chart data...
Computing Atmospheric mass density...
Loading historical data...
Loading historical data...
Loading historical data...
Loading historical data...
Loading historical data...
Loading historical data...
Loading historical data...
Other satellites on launch #51 in the year 1965 (1965-07-02 UTC)

Documentation

Showing up to 5 results
|